Regional Weather Roundup
Issued by NWS

Home | Current Version | Previous Version | Graphics & Text | Print | Product List | Glossary On
Versions: 1 2 3 4 5 6 7 8 9 10 11 12 13 14 15 16 17 18 19 20 21 22 23 24 25 26 27 28 29 30 31 32 33 34 35 36 37 38 39 40 41 42 43 44 45 46 47 48 49 50
000
ASUS45 KBOU 231810
RWRCO

WEATHER ROUNDUP FOR COLORADO
NATIONAL WEATHER SERVICE DENVER/BOULDER CO
1100 AM MST THU NOV 23 2017

NOTE: "FAIR" INDICATES FEW OR NO CLOUDS BELOW 12000 FEET WITH NO
SIGNIFICANT WEATHER AND/OR OBSTRUCTIONS TO VISIBILITY.

COZ001>005-013-030-031-231900-
...NORTHWEST COLORADO...

CITY           SKY/WX    TMP DP  RH WIND       PRES   REMARKS
CRAIG          FAIR      49  38  65 CALM      30.33F
HAYDEN         FAIR      49  37  63 E5        30.36F
MEEKER         FAIR      50  36  58 CALM      30.35F
RABBIT EARS PA FAIR      34  34 100 W8        30.46S WCI  27
STEAMBOAT SPGS FAIR      41  38  87 CALM      30.35F
WALDEN         FAIR      50  32  50 S17       30.35F
$$

COZ006>008-011-231900-
...WEST CENTRAL VALLEYS...

CITY           SKY/WX    TMP DP  RH WIND       PRES   REMARKS
GRAND JUNCTION FAIR      53  36  52 SE3       30.35F
MONTROSE       FAIR      51  34  52 CALM      30.38F
EAGLE          FAIR      35  31  85 CALM      30.43F
RIFLE          FAIR      43  35  73 CALM      30.38F
DELTA          FAIR      49  33  53 CALM      30.37F
NUCLA          FAIR      46  32  57 CALM      30.41F
$$

COZ017>023-064>068-231900-
...SOUTHWEST COLORADO...

CITY           SKY/WX    TMP DP  RH WIND       PRES   REMARKS
DURANGO        FAIR      49  28  44 CALM      30.38F
CORTEZ         FAIR      54  29  38 CALM      30.36F
PAGOSA SPRINGS FAIR      53  27  36 E3        30.41F
TELLURIDE      FAIR      52  20  27 CALM      30.48F
WOLF CREEK PAS NOT AVBL
$$

COZ009-010-012-014-032>034-037-058>063-231900-
...CENTRAL COLORADO...

CITY           SKY/WX    TMP DP  RH WIND       PRES   REMARKS
ASPEN          FAIR      48  33  56 NW7       30.40F
BUENA VISTA    FAIR      51  31  46 SE6       30.38F
COPPER MTN     NOT AVBL
BERTHOUD PASS  FAIR      23  12  63 NW28G35   30.50F WCI   6
COTTONWOOD PAS FAIR      54  19  26 W3        30.45F
GUNNISON       FAIR      40  30  67 CALM      30.47F
KREMMLING      FAIR      41  37  87 CALM      30.41F
LEADVILLE      FAIR      39  25  57 CALM      30.45F
MONARCH PASS   FAIR      34  25  69 SW25G33   30.65S WCI  21
SALIDA         FAIR      52  31  45 N12       30.44F
SUNLIGHT       FAIR      39  28  65 SW6       30.55F
WILKERSON PASS FAIR      41   9  26 NW12G23   30.50F
$$

COZ069>075-231900-
...SAN LUIS VALLEY/SANGRE DE CRISTO MOUNTAINS...

CITY           SKY/WX    TMP DP  RH WIND       PRES   REMARKS
ALAMOSA        FAIR      51  31  46 CALM      30.40F
DEL NORTE      FAIR      47  27  46 NE3       30.42F
LA VETA PASS   FAIR      43  30  61 MISG        N/A
SAGUACHE       FAIR      45  32  61 SE8       30.43S
$$

COZ035-036-038>040-231900-
...NORTHERN COLORADO FRONT RANGE...

CITY           SKY/WX    TMP DP  RH WIND       PRES   REMARKS
DENVER INTL AP PTSUNNY   66  29  24 SW10      30.15F
DMNS CITY PARK   N/A     67  29  24 SE10      30.14F
AURORA         PTSUNNY   64  29  26 S8        30.17F
FRONT RANGE AP PTSUNNY   68  30  24 SW10      30.16F
ERIE MUNI ARPT FAIR      68  24  19 SW3       30.19F
BOULDER MUN AP FAIR      68  28  22 E7        30.13F
CENTENNIAL     PTSUNNY   64  27  24 SW8       30.18F
BROOMFIELD     CLOUDY    68  25  19 W18G29    30.17F
FORT COLLINS   FAIR      61  42  49 S6        30.13F
LONGMONT       FAIR      64  36  35 CALM      30.14F
$$

COZ041-046-047-076>085-087-088-231900-
...PIKES PEAK/PALMER DIVIDE AND SOUTHERN FOOTHILLS...

CITY           SKY/WX    TMP DP  RH WIND       PRES   REMARKS
COLO. SPRINGS  PTSUNNY   62  32  32 S6        30.23F
A. F. ACADEMY  FAIR      60  31  33 S7        30.22F
SCHRIEVER AFB  FAIR      61  30  30 S8        30.22F
CHEYENNE MTN   FAIR      57  31  37 CALM      30.19F
ELLICOTT         N/A    N/A N/A N/A SW10      30.21F
FALCON         FAIR      60  29  30 SW8G18    30.26F
FORT CARSON    FAIR      62  31  31 CALM      30.20F
LIMON          FAIR      65  35  33 SW17      30.18F
MONUMENT HILL  FAIR      57  28  33 SW9       30.26F
CANON CITY     FAIR      66  32  28 W18       30.20F
WALSENBURG     FAIR      66  32  28 SW12      30.23F
TRINIDAD       FAIR      62  34  35 W12       30.23F
$$

COZ042>045-048>051-090-091-231900-
...NORTHEAST COLORADO...

CITY           SKY/WX    TMP DP  RH WIND       PRES   REMARKS
GREELEY ARPT   FAIR      59  39  47 SE5       30.13F
AKRON          FAIR      64  34  32 W14       30.12F
BURLINGTON     FAIR      67  39  35 VRB3      30.14F
WRAY           NOT AVBL
YUMA           FAIR      68  36  30 W10       30.09F
STERLING       FAIR      55  37  50 S5        30.08F
HOLYOKE        FAIR      68  36  30 W18       30.08F
FORT MORGAN    FAIR      58  32  38 W9        30.12F
$$

COZ086-089-092>099-231900-
...SOUTHEAST COLORADO...

CITY           SKY/WX    TMP DP  RH WIND       PRES   REMARKS
PUEBLO         FAIR      59  36  42 S3        30.17F
LA JUNTA       FAIR      62  35  36 VRB3      30.17F
LAMAR          FAIR      65  35  33 W8        30.15F
SPRINGFIELD      N/A     67  36  31 W9        30.17F
$$



USA.gov is the U.S. government's official web portal to all federal, state and local government web resources and services.